Seattle Boeing, WA
on Saturday, January 5, 2013

Saturday
Previous Day Next Day
Daily Summary
 ActualAverage (KSEA)Record (KSEA)
Temperature
Mean Temperature °F / °C 41°F / 5°C  
Max Temperature 46°F / 8°C 46°F / 8°C 55°F / 12°C (2006)
Min Temperature 42°F / 6°C 36°F / 2°C 15°F / -9°C (1982)
Degree Days
Heating Degree Days 21 24  
Month to date heating degree days 120  
Since 1 July heating degree days 2058  
Cooling Degree Days 0 0  
Month to date cooling degree days 0  
Year to date cooling degree days 0  
Moisture
Dew Point 35°F / 2°C   
Average Humidity 72    
Maximum Humidity 92    
Minimum Humidity 63    
Precipitation
Precipitation 0.10 in / 2.54 cm 0.18 in / 4.57 cm 1.33 in / 3.38 cm (2006)
Month to date precipitation 0.92  
Year to date precipitation 0.92  
Snow
Snow 0.00 in / 0.00 cm in / cm 2.00 in / 5.08 cm (1959)
Month to date snowfall  
Since 1 July snowfall  
Snow Depth in / cm   
Wind
Wind Speed 3 mph / 5 km/h   
Max Wind Speed 13 mph / 21 km/h   
Max Gust Speed 18 mph / 29 km/h   
Visibility 9 miles / 15 kilometers   
Events Rain   

Key: T is trace of precipitation, MM is missing value
Source: NWS Daily Summary
Time(PST)TemperatureDew PointHumidity Pressure Visibility Wind DirectionWind SpeedGust SpeedPrecipitationEvents Conditions
12:53 AM 44.1°F / 6.7°C 36.0°F / 2.2°C 73% 30.16 in / 1021.2 hPa 10.0 miles / 16.1 kilometers Calm Calm - N/A   Overcast
1:53 AM 44.1°F / 6.7°C 37.0°F / 2.8°C 76% 30.17 in / 1021.4 hPa 10.0 miles / 16.1 kilometers Calm Calm - N/A   Overcast
2:53 AM 42.1°F / 5.6°C 37.0°F / 2.8°C 82% 30.17 in / 1021.7 hPa 10.0 miles / 16.1 kilometers SW 3.5 mph / 5.6 km/h - N/A   Overcast
3:53 AM 42.1°F / 5.6°C 37.0°F / 2.8°C 82% 30.18 in / 1021.8 hPa 10.0 miles / 16.1 kilometers Calm Calm - N/A   Mostly Cloudy
4:53 AM 44.1°F / 6.7°C 35.1°F / 1.7°C 71% 30.17 in / 1021.4 hPa 10.0 miles / 16.1 kilometers South 5.8 mph / 9.3 km/h - N/A   Overcast
5:53 AM 43.0°F / 6.1°C 34.0°F / 1.1°C 71% 30.17 in / 1021.5 hPa 10.0 miles / 16.1 kilometers SE 3.5 mph / 5.6 km/h - N/A   Mostly Cloudy
6:53 AM 43.0°F / 6.1°C 35.1°F / 1.7°C 74% 30.17 in / 1021.7 hPa 10.0 miles / 16.1 kilometers Calm Calm - N/A   Overcast
7:53 AM 43.0°F / 6.1°C 33.1°F / 0.6°C 68% 30.18 in / 1021.9 hPa 10.0 miles / 16.1 kilometers SSE 8.1 mph / 13.0 km/h - N/A   Overcast
8:53 AM 44.1°F / 6.7°C 33.1°F / 0.6°C 65% 30.19 in / 1022.4 hPa 10.0 miles / 16.1 kilometers Calm Calm - N/A   Overcast
9:53 AM 45.0°F / 7.2°C 33.1°F / 0.6°C 63% 30.20 in / 1022.7 hPa 10.0 miles / 16.1 kilometers Calm Calm - 0.00 in / 0.0 cm   Overcast
10:53 AM 45.0°F / 7.2°C 34.0°F / 1.1°C 65% 30.20 in / 1022.7 hPa 10.0 miles / 16.1 kilometers SE 8.1 mph / 13.0 km/h - 0.00 in / 0.0 cm   Overcast
11:53 AM 45.0°F / 7.2°C 34.0°F / 1.1°C 65% 30.19 in / 1022.1 hPa 10.0 miles / 16.1 kilometers SE 12.7 mph / 20.4 km/h - N/A   Overcast
12:53 PM 45.0°F / 7.2°C 35.1°F / 1.7°C 68% 30.17 in / 1021.5 hPa 10.0 miles / 16.1 kilometers SE 9.2 mph / 14.8 km/h - N/A   Mostly Cloudy
1:53 PM 45.0°F / 7.2°C 35.1°F / 1.7°C 68% 30.13 in / 1020.2 hPa 10.0 miles / 16.1 kilometers SE 9.2 mph / 14.8 km/h 18.4 mph / 29.6 km/h N/A   Overcast
2:53 PM 46.0°F / 7.8°C 35.1°F / 1.7°C 66% 30.15 in / 1020.8 hPa 10.0 miles / 16.1 kilometers South 3.5 mph / 5.6 km/h - N/A   Scattered Clouds
3:53 PM 45.0°F / 7.2°C 34.0°F / 1.1°C 65% 30.14 in / 1020.4 hPa 10.0 miles / 16.1 kilometers Calm Calm - N/A   Overcast
4:53 PM 44.1°F / 6.7°C 33.1°F / 0.6°C 65% 30.12 in / 1019.9 hPa 10.0 miles / 16.1 kilometers SSE 5.8 mph / 9.3 km/h - N/A   Scattered Clouds
5:53 PM 42.1°F / 5.6°C 32.0°F / 0.0°C 67% 30.12 in / 1020.0 hPa 10.0 miles / 16.1 kilometers SE 4.6 mph / 7.4 km/h - N/A   Mostly Cloudy
6:53 PM 42.1°F / 5.6°C 32.0°F / 0.0°C 67% 30.13 in / 1020.2 hPa 10.0 miles / 16.1 kilometers SE 4.6 mph / 7.4 km/h - N/A   Mostly Cloudy
7:53 PM 44.1°F / 6.7°C 33.1°F / 0.6°C 65% 30.13 in / 1020.1 hPa 10.0 miles / 16.1 kilometers Calm Calm - N/A   Overcast
8:12 PM 44.6°F / 7.0°C 33.8°F / 1.0°C 66% 30.13 in / 1020.2 hPa 10.0 miles / 16.1 kilometers Calm Calm - 0.00 in / 0.0 cm Rain Light Rain
8:53 PM 43.0°F / 6.1°C 36.0°F / 2.2°C 76% 30.13 in / 1020.3 hPa 7.0 miles / 11.3 kilometers Calm Calm - 0.01 in / 0.3 cm Rain Light Rain
9:53 PM 43.0°F / 6.1°C 39.0°F / 3.9°C 86% 30.14 in / 1020.6 hPa 5.0 miles / 8.0 kilometers South 5.8 mph / 9.3 km/h - 0.04 in / 1.0 cm Rain Light Rain
10:53 PM 42.1°F / 5.6°C 39.9°F / 4.4°C 92% 30.15 in / 1020.8 hPa 6.0 miles / 9.7 kilometers SE 6.9 mph / 11.1 km/h - 0.05 in / 1.3 cm   Overcast
11:53 PM 42.1°F / 5.6°C 39.0°F / 3.9°C 89% 30.15 in / 1021.0 hPa 5.0 miles / 8.0 kilometers SE 9.2 mph / 14.8 km/h - N/A   Overcast
Moon Phase
Jan. 05 Jan. 11 Jan. 18 Jan. 26 Feb. 03
Sunrise:07:56 AM (PST) Moon Rise:12:54 AM (PST)1/5
Sunset:04:33 PM (PST) Moon Set:11:38 AM (PST)1/5

Copyright © 2014 The Weather Underground, Inc.